Regional Weather Roundup
Issued by NWS

Home | Current Version | Previous Version | Graphics & Text | Print | Product List | Glossary On
Versions: 1 2 3 4 5 6 7 8 9 10 11 12 13 14 15 16 17 18 19 20 21 22 23 24 25 26 27 28 29 30 31 32 33 34 35 36 37 38 39 40 41 42 43 44 45 46 47 48 49 50
000
ASUS43 KDTX 222210
RWRMI
MICHIGAN HOURLY REGIONAL WEATHER ROUNDUP
NATIONAL WEATHER SERVICE DETROIT/PONTIAC MI
600 PM EDT FRI MAY 22 2015

NOTE: "FAIR" INDICATES FEW OR NO CLOUDS BELOW 12,000 FEET WITH NO
SIGNIFICANT WEATHER AND/OR OBSTRUCTION TO VISIBILITY.

MIZ047>049-052>055-059>063-066>070-074>076-081>083-222300-
SOUTHEAST LOWER MICHIGAN

CITY           SKY/WX    TMP DP  RH WIND       PRES   REMARKS
ADRIAN         SUNNY     68  29  23 NW9       30.23R
ALMA           SUNNY     65  28  24 W8        30.23R
ANN ARBOR      SUNNY     66  30  26 NW6       30.23R
BAD AXE        SUNNY     50  26  39 NE9G17    30.27R
CARO           SUNNY     61  28  28 NW10G18   30.23R
DETROIT CITY   SUNNY     64  26  23 W8        30.23R
DETROIT        MOSUNNY   67  30  25 W14G21    30.24R
FLINT          SUNNY     67  27  22 NW8       30.22R
GROSSE ILE     SUNNY     66  25  20 NW12G17   30.22R
HILLSDALE      SUNNY     68  30  24 NW10G20   30.23R
HOWELL         SUNNY     65  27  23 NW12      30.23R

CITY           SKY/WX    TMP DP  RH WIND       PRES   REMARKS
JACKSON        SUNNY     66  33  29 NW12G17   30.22S
LAMBERTVILLE   SUNNY     68  32  26 NW6       30.23R
LANSING        SUNNY     67  32  27 W8G18     30.23S
LAPEER         FAIR      62  23  22 NW6       30.23R
MASON          SUNNY     64  32  30 NW5       30.23R
MONROE         SUNNY     66  30  26 NW13      30.22R
MT. CLEMENS    MOSUNNY   62  36  37 NE9       30.21R
PONTIAC        MOSUNNY   64  27  24 NW12      30.22S
PORT HOPE        N/A     46  28  49 NE9       30.27R
PORT HURON     SUNNY     50  28  43 NE13      30.27R
TRI CITIES     SUNNY     65  22  19 N12       30.23R
MIDLAND        FAIR      64  22  20 N10G22    30.22S
TROY           SUNNY     66  26  22 W8        30.24S
SAGINAW HB     SUNNY     64  21  19 NW9G20    30.23R
$$
MIZ043>046-050>051-056>058-064>065-071>073-077>080-222300-
SOUTHWEST LOWER MICHIGAN

CITY           SKY/WX    TMP DP  RH WIND       PRES   REMARKS
BATTLE CREEK   SUNNY     66  30  26 NW15      30.25R
BENTON HARBOR  SUNNY     58  32  37 N5        30.27F
BIG RAPIDS     SUNNY     62  11  13 NW14G21   30.24S
COLDWATER      SUNNY     67  32  26 NW12      30.23R
FREMONT        FAIR      62  19  18 NW12G18   30.26S
HOLLAND        SUNNY     61  28  28 NW12      30.29R
GRAND RAPIDS   MOSUNNY   66  30  26 W15G23    30.25R
IONIA          FAIR      66  28  24 NW8G16    30.23R
KALAMAZOO      SUNNY     67  32  27 W14       30.26R
LUDINGTON      SUNNY     61  20  21 NW5       30.29S
MARSHALL       SUNNY     67  30  24 NW8G16    30.23R
MOUNT PLEASANT SUNNY     65  28  24 NW9G16    30.22S
MUSKEGON       SUNNY     62  23  22 W8        30.28R
SOUTH HAVEN    SUNNY     59  27  29 N8        30.28S
$$
MIZ016>042-222300-
NORTHERN LOWER MICHIGAN

CITY           SKY/WX    TMP DP  RH WIND       PRES   REMARKS
ALPENA         SUNNY     56  24  29 N15G22    30.25R
BEAVER ISLAND  SUNNY     53  21  28 SW9       30.27S
BELLAIRE       SUNNY     57  21  24 NW7       30.28S
CADILLAC       SUNNY     58  25  27 N7G20     30.25S
CHARLEVOIX     SUNNY     55  25  32 W6        30.30S
FRANKFORT      SUNNY     59   9  13 SW3       30.27F
GAYLORD        SUNNY     53  18  25 NW8       30.26R
GRAYLING       SUNNY     57  18  21 NW9G17    30.27R
HARBOR SPRINGS SUNNY     51  25  36 SW8       30.26S
HOUGHTON LAKE  SUNNY     57  11  16 NW16      30.26R
MANISTEE       SUNNY     57  21  24 NW3       30.29S
OSCODA         SUNNY     48  29  47 SE7       30.25S
PELLSTON       SUNNY     56  21  25 N13G18    30.26S
ROGERS CITY    SUNNY     50  27  41 N12G20    30.27R
TRAVERSE CITY  SUNNY     56  24  29 NE8       30.27F
$$
MIZ007>008-015-222300-
EASTERN UPPER MICHIGAN

CITY           SKY/WX    TMP DP  RH WIND       PRES   REMARKS
KINROSS        SUNNY     48  16  27 NW20      30.24S
MACKINAC ISLAN SUNNY     51  30  44 W10G16    30.25S
NEWBERRY       SUNNY     52  21  29 NW10G22   30.26S
S. S. MARIE    SUNNY     46  21  37 W10       30.26R
MUNISING         N/A     47  33  58 NE6       30.26F
$$
MIZ004>006-011>014-085-222300-
CENTRAL UPPER MICHIGAN

CITY           SKY/WX    TMP DP  RH WIND       PRES   REMARKS
MANISTIQUE     SUNNY     49  29  46 S9        30.26S
ESCANABA       SUNNY     54  32  43 SE9       30.25S
MENOMINEE      SUNNY     55  28  35 S15G24    30.24S
SAWYER-GWINN   SUNNY     54  23  30 NE10      30.24S
$$
MIZ001>003-009>011-084-222300-
WESTERN UPPER MICHIGAN

CITY           SKY/WX    TMP DP  RH WIND       PRES   REMARKS
IRON MOUNTAIN  SUNNY     68  17  14 NW9       30.18S
HOUGHTON       SUNNY     52  27  38 E8        30.23S
COPPER HARBOR    N/A     51  24  34 SW9G18    30.23F
IRONWOOD       SUNNY     64  28  25 W3        30.19S
$$

ABBREVIATIONS USED IN REMARKS
   TC - TEMPERATURE IN CELSIUS
  WCI - WIND CHILL INDEX
   HX - HEAT INDEX
  VSB - VISIBILITY



USA.gov is the U.S. government's official web portal to all federal, state and local government web resources and services.